This is the latest recevied weather packets stored in our database for station/object OE3TEC-15. If no packets are shown the sender has not sent any weather packets the latest 10 day(s).
| Time | Temp. | Humidity | Pressure | Rain* | Wind** | Luminosity | Snow |
|---|---|---|---|---|---|---|---|
| 1777547318 | 12.78° C | 31% | 1030.9 hPa | 0 mm | - | 654 W/m² | - |
| 1777546711 | 12.78° C | 31% | 1031.2 hPa | 0 mm | - | 655 W/m² | - |
| 1777546105 | 12.22° C | 33% | 1031.3 hPa | 0 mm | - | 653 W/m² | - |
| 1777545496 | 12.22° C | 32% | 1031.3 hPa | 0 mm | - | 651 W/m² | - |
| 1777544889 | 12.22° C | 31% | 1031.5 hPa | 0 mm | - | 657 W/m² | - |
| 1777544282 | 12.22° C | 32% | 1031.6 hPa | 0 mm | - | 652 W/m² | - |
| 1777543674 | 11.67° C | 31% | 1031.4 hPa | 0 mm | - | 655 W/m² | - |
| 1777543069 | 12.22° C | 32% | 1031.5 hPa | 0 mm | - | 649 W/m² | - |
| 1777542461 | 11.67° C | 32% | 1031.4 hPa | 0 mm | - | 642 W/m² | - |
| 1777541853 | 11.67° C | 33% | 1031.5 hPa | 0 mm | - | 635 W/m² | - |
| 1777541246 | 11.11° C | 34% | 1031.7 hPa | 0 mm | - | 625 W/m² | - |
| 1777540639 | 10.56° C | 33% | 1031.8 hPa | 0 mm | - | 616 W/m² | - |
| 1777540032 | 10.56° C | 35% | 1031.9 hPa | 0 mm | - | 601 W/m² | - |
| 1777539425 | 10.56° C | 34% | 1032.1 hPa | 0 mm | - | 587 W/m² | - |
| 1777538817 | 10° C | 36% | 1032 hPa | 0 mm | - | 571 W/m² | - |
| 1777538209 | 10° C | 36% | 1032 hPa | 0 mm | - | 558 W/m² | - |
| 1777537602 | 10° C | 35% | 1032.4 hPa | 0 mm | - | 538 W/m² | - |
| 1777536996 | 10° C | 33% | 1032.4 hPa | 0 mm | - | 523 W/m² | - |
| 1777536390 | 10° C | 35% | 1032.4 hPa | 0 mm | - | 504 W/m² | - |
| 1777535781 | 9.44° C | 36% | 1032.6 hPa | 0 mm | - | 481 W/m² | - |
| 1777535174 | 9.44° C | 35% | 1032.5 hPa | 0 mm | - | 460 W/m² | - |
| 1777534567 | 8.89° C | 37% | 1032.8 hPa | 0 mm | - | 434 W/m² | - |
| 1777533959 | 8.89° C | 38% | 1032.7 hPa | 0 mm | - | 411 W/m² | - |
| 1777533352 | 8.33° C | 37% | 1032.7 hPa | 0 mm | - | 386 W/m² | - |
| 1777532746 | 8.33° C | 39% | 1032.6 hPa | 0 mm | - | 358 W/m² | - |
* Rain latest hour (hover to see other rain measurements)
** Current wind speed in m/s (hover to see current wind gust speed)